Regional Weather Roundup
Issued by NWS Green Bay, WI

Home | Current Version | Previous Version | Graphics & Text | Print | Product List | Glossary Off
Versions: 1 2 3 4 5 6 7 8 9 10 11 12 13 14 15 16 17 18 19 20 21 22 23 24 25 26 27 28 29 30 31 32 33 34 35 36 37 38 39 40 41 42 43 44 45 46 47 48 49 50

000
ASUS43 KGRB 302210
RWRGRB

NORTH-CENTRAL AND NORTHEAST WISCONSIN REGIONAL WEATHER ROUNDUP
NATIONAL WEATHER SERVICE GREEN BAY WI
400 PM CST FRI JAN 30 2015

WIZ005-009-010>012-018-019-302300-
NORTH CENTRAL WISCONSIN

CITY           SKY/WX    TMP DP  RH WIND       PRES   REMARKS
IRONWOOD       CLOUDY    18   5  57 S9        30.27F WCI   6
MANITOWISH WTR CLOUDY    16   4  61 W6        30.28F WCI   7
ARBOR VITAE    CLOUDY    19   6  56 W6        30.28F
EAGLE RIVER    MOCLDY    16   2  54 SW5       30.29F WCI   9
LAND O LAKES   CLOUDY    18   3  51 SW6       30.28F WCI  10
RHINELANDER    CLOUDY    17   2  51 SW8       30.30F WCI   7
PHILLIPS       CLOUDY    16   4  59 SW5       30.30F WCI   9
ANTIGO         PTCLDY    16   5  62 SW8       30.32F WCI   5
TOMAHAWK       MOCLDY    18   2  48 CALM      30.31F
MERRILL        PTCLDY    16   5  60 SW7       30.34F WCI   7
$$

WIZ013-073-302300-
NORTHEAST WISCONSIN

CITY           SKY/WX    TMP DP  RH WIND       PRES   REMARKS
IRON MOUNTAIN  CLOUDY    19   2  47 SW5       30.32F
MARINETTE      CLOUDY    18   7  62 S6        30.39F WCI   9
OCONTO         CLOUDY    19   8  61 MISG      30.40F
$$

WIZ017-030-035>037-045-302300-
CENTRAL WISCONSIN

CITY           SKY/WX    TMP DP  RH WIND       PRES   REMARKS
MEDFORD        PTCLDY    14   5  66 SW5       30.33S WCI   7
WAUSAU         MOCLDY    17   5  59 SW6       30.34F WCI   9
MOSINEE        PTCLDY    18   7  62 SW6       30.37F WCI   9
MARSHFIELD     MOCLDY    18   6  59 CALM      30.35F
WISC RAPIDS    MOCLDY    20   6  55 S6        30.40F
STEVENS POINT  MOCLDY    18   4  55 W5        30.39S
WAUPACA        PTCLDY    24   5  44 SW6       30.40F
SHAWANO        CLOUDY    23   7  52 SW5       30.39F
CLINTONVILLE   MOCLDY    21   5  49 W5        30.39F
$$

WIZ038-039-048-051-302300-
FOX VALLEY

CITY           SKY/WX    TMP DP  RH WIND       PRES   REMARKS
NWS GREEN BAY  MOCLDY    21   9  59 SW5       30.40F
APPLETON       MOCLDY    19   7  58 SW8       30.39F WCI   9
OSHKOSH        MOCLDY    22   8  55 SW6       30.40F
FOND DU LAC    MOCLDY    22   8  55 SW7       30.40F
$$

WIZ022-050-052-302300-
EAST CENTRAL WISCONSIN

CITY           SKY/WX    TMP DP  RH WIND       PRES   REMARKS
STURGEON BAY   CLOUDY    18   5  57 W7        30.42F WCI   8
MANITOWOC      CLEAR     21  12  68 SE7       30.42F
SHEBOYGAN      CLEAR     24   8  50 W6        30.41F
$$

LMZ563-521-522-541>543-302300-
LAKESHORE

STATION/POSITION TIME  TEMP    WIND        PRES    VSBY  WAVE
                       AIR SEA DIR/SP/G                  HT/PER
                 (UTC) (F)     (DEG/KT/KT) (MB)    (MI)  (FT/S)
SHEBOYGAN LKSHOR 2200   22     160/  7/ 10 1031.5F
KEWAUNEE LKSHORE 2200   20     220/  5/  8 1029.2F
NORTHPORT PIER   2200   18     200/  2/  5 1029.5F
SISTER BAY LKSHO 2100   32        CALM       N/A
STURGEON BAY CG  2200   20 32  290/  5       N/A       6   0
CHAMBERS ISLAND  2200   16     160/  3/  9 1029.8F
MENOMINEE LKSHOR 2200   16     160/ 10     1030.1F
$$



USA.gov is the U.S. government's official web portal to all federal, state and local government web resources and services.